Location: Six Mile Lake
(44.9000°N, 79.7170°W)
Time: 08:27:03
(UTC-04:00)

LO-87 - Pass Details

Date: 05 July 2022
Orbit: 451 x 466 km, 97.4° (Epoch: 13 August)

Event Time Altitude Azimuth Distance (km) Brightness Sun altitude
Exits shadow 01:36:35 23° 281° (W) 1,036 ? -22.3°
Drops below altitude 10° 01:38:54 10° 321° (NW) 1,626 ? -22.2°
Sets 01:41:14 0° 336° (NNW) 2,512 ? -22.2°
